sat.trackr.live / text

‹ back to catalog

STARLINK-36621

NORAD 67561 · 2026-016A

PAYLOAD ACTIVE UNKNOWN

§ Identity

Operator
Country
US
Launch date
2026-01-25
Launch site
AFWTR
Launch vehicle
Mass (kg)
RCS (m²)

Purposes: comms

External: N2YO · Heavens-Above · Gunter

§ Orbital elements

Epoch: 2026-05-25T02:47:36.573792Z

Period
93.91 min
Inclination
97.2839°
Eccentricity
0.0000780
Mean motion
15.33448861 rev/d
Perigee alt
465.0 km
Apogee alt
466.1 km
Semi-major
6,843.7 km
B*
5.9355e-4
RAAN
205.3961°
Arg perigee
121.8463°
Mean anomaly
238.2855°
Rev number
1,857

§ Raw data

STARLINK-366211 67561U 26016A   26145.11639553  .00019138  00000+0  59355-3 0  99922 67561  97.2839 205.3961 0000780 121.8463 238.2855 15.33448861 18578

JSON: /api/v1/satellites/67561 · /tle

For live sub-satellite position, see the globe view (requires WebGL).

§ Visibility from observer

Set your observer location to see the next 7 days of passes ≥ 10°. The values pass through the URL so the page stays shareable.

No JS? Fill the form by hand. The geolocation button needs JavaScript.